Regional Weather Roundup
Issued by NWS Newport/Morehead, NC

Current Version | Previous Version | Text Only | Print | Product List | Glossary On
Versions: 1 2 3 4 5 6 7 8 9 10 11 12 13 14 15 16 17 18 19 20 21 22 23 24 25 26 27 28 29 30 31 32 33 34 35 36 37 38 39 40 41 42 43 44 45 46 47 48 49 50
000
ASUS42 KMHX 240313
RWRMHX
WEATHER ROUNDUP FOR EASTERN NORTH CAROLINA
NATIONAL WEATHER SERVICE NEWPORT/MOREHEAD CITY NC
1100 PM EDT SUN APR 23 2017

NOTE: "FAIR" INDICATES FEW OR NO CLOUDS BELOW 12,000 FEET
WITH NO SIGNIFICANT WEATHER AND/OR OBSTRUCTIONS TO VISIBILITY

NCZ015>017-031-032-045>047-102-103-240400-
NORTH COAST

CITY           SKY/WX    TMP DP  RH WIND       PRES   REMARKS
EDENTON        CLOUDY    57  54  90 NE8       30.01F
ELIZABETH CITY CLOUDY    57  55  93 NE15G23   30.02S
KITTY HAWK     CLOUDY    57  55  94 NE6       29.99F
MANTEO         CLOUDY    57  55  91 NE16G23   29.99F

$$

NCZ045>047-081-094-103-104-240400-
CENTRAL COAST

CITY           SKY/WX    TMP DP  RH WIND       PRES   REMARKS
FRISCO         LGT RAIN  63  60  90 NE12G18   29.96S FOG

$$

NCZ095-097-098-100-101-240400-
SOUTHERN COAST

CITY           SKY/WX    TMP DP  RH WIND       PRES   REMARKS
BEAUFORT       CLOUDY    65  64  97 NE12      29.93F
CEDAR ISLAND   NOT AVBL
JACKSONVILLE   CLOUDY    61  60  97 NE8       29.93F
PINEY ISLAND   CLOUDY   N/A N/A N/A NE13G24   29.95S
WILMINGTON     CLOUDY    62  61  96 NE10      29.91S


$$

NCZ011>013-027>030-043-044-078>080-089-090>093-098-240400-
COASTAL PLAIN

CITY           SKY/WX    TMP DP  RH WIND       PRES   REMARKS
AHOSKIE          N/A     51  51  97 NE9       30.03F
CLINTON        CLOUDY    56  56 100 NE6       29.95S FOG
ELIZABETHTOWN  CLOUDY    58  58 100 NE5       29.93R FOG
GOLDSBORO      CLOUDY    55  55 100 NE10      29.96S FOG
GREENVILLE     CLOUDY    55  55 100 NE9       30.01S FOG
HAVELOCK       NOT AVBL
KENANSVILLE    CLOUDY    57  55  94 E5        29.95F FOG
KINSTON        CLOUDY    56  56  97 NE10G17   29.98F FOG
NEW BERN       CLOUDY    59  58  96 NE10      29.97F
RICHLANDS      CLOUDY    58  57  97 NE10      29.95F
ROCKY MOUNT    LGT RAIN  53  53 100 NE12      30.00F
WASHINGTON     CLOUDY    56  55  96 NE9G16    29.98F
WHITEVILLE     CLOUDY    60  58  96 NE12G18   29.89F FOG

$$

AMZ130-135-150-152-154-156-158-170-250-252-270-ANZ085-086-088-633-658-670-240400-
MARINE OBSERVATIONS

STATION/POSITION TIME  TEMP    WIND        PRES    WAVE   SWELL
                       AIR SEA DIR/SP/G            HT/PER HT/PER
                 (UTC) (F)     (DEG/KT/KT) (MB)    (FT/S) (FT/S)
CHESAPEAKE LIGHT NOT AVBL
64 E VA BEACH    0250   55 53   30/ 16/ 17 1016.6    6/ 8   3/ 8
DUCK             0242   57 62   40/ 18/ 21 1015.6
2 E DUCK         0300      59                N/A     6/ 6   2/12
OREGON INLET     0242   57 59   30/ 15/ 21 1014.8
13E OREGON INLT  0248      55                N/A     8/ 8   7/ 8
HATTERAS CG      0242   64 68   40/ 11/ 18 1014.1
DIAMOND BUOY     0250   70 77   10/  6/ 10 1014.1    8/11   8/11
CAPE LOOKOUT     0300   65      30/ 17/ 21 1013.1
BEAUFORT LAB     0242   64 65   40/ 10/ 15 1012.8
30 SE NEW RVR IN 0208   66      40/ 17/ 23 1012.8
30 SE NEW RVR IN 0243      71                N/A     6/ 5   2/12
27 SE WRIGHTSVLE 0208   68 71   90/ 16/ 21 1011.9
5 SE WRIGHTSVLE  0208   67 69   70/ 16/ 23 1012.6
225 S CAPE HAT   0250   73 75  140/ 17/ 21 1013.7    5/11   2/11
41 SE CHARLESTON 0250   75 74  140/ 17/ 21 1009.3    5/ 5   2/11

$$



USA.gov is the U.S. government's official web portal to all federal, state and local government web resources and services.